Location: Ahausen
(50.4985°N, 8.2722°E)
Time: 18:32:59
(UTC+00:00)

Lacrosse 5 rocket - Pass Details

Date: 18 September 2020
Orbit: 461 x 635 km, 57.0° (Epoch: 21 October)

Event Time Altitude Azimuth Distance (km) Brightness Sun altitude
Rises 21:26:23 0° 297° (WNW) 2,840 5.8 -32.6°
Reaches altitude 10° 21:28:42 10° 303° (WNW) 1,961 4.8 -32.8°
Enters shadow 21:30:50 26° 319° (NW) 1,236 3.6 -33.0°
